Regional Weather Roundup
Issued by NWS Wakefield, VA

Home | Current Version | Previous Version | Text Only | Print | Product List | Glossary Off
Versions: 1 2 3 4 5 6 7 8 9 10 11 12 13 14 15 16 17 18 19 20 21 22 23 24 25 26 27 28

000
ASUS41 KAKQ 181610
RWRAKQ

REGIONAL WEATHER ROUNDUP
NATIONAL WEATHER SERVICE WAKEFIELD VA
1200 PM EDT FRI APR 18 2014

Note: "fair" indicates few or no clouds below 12,000 feet with no
significant weather and/or obstructions to visibility. * = Denotes
station may not report precipitation (e.g., rain,snow,etc.),
thunder or fog.

VAZ042-051-052>054-056-181700-
NORTHERN VIRGINIA

CITY           SKY/WX    TMP DP  RH WIND       PRES   REMARKS
WASH NATIONAL  CLOUDY    49  33  54 N3        30.48F
DULLES         CLOUDY    45  31  58 CALM      30.47F
FORT BELVOIR   CLOUDY    47  32  55 VRB2      30.48F
QUANTICO       CLOUDY    47  32  56 NE5       30.48F
FREDERICKSBRG* PTSUNNY   48  36  61 CALM      30.47F
STAFFORD*      CLOUDY    48  37  64 CALM      30.51F
WARRENTON      CLOUDY    46  39  75 CALM      30.46F
CULPEPER*      CLOUDY    48  34  57 E5        30.47F
MANASSAS*      CLOUDY    46  36  66 CALM      30.48F
LEESBURG*      CLOUDY    45  36  70 CALM      30.48F
WINCHESTER     PTSUNNY   46  34  61 E3        30.42F
$$

VAZ048-049-060>072-079>083-181700-
CENTRAL AND SOUTH CENTRAL VIRGINIA...AND NORTH CENTRAL NORTH CAROLINA

CITY           SKY/WX    TMP DP  RH WIND       PRES   REMARKS
RICHMOND       CLOUDY    50  33  52 VRB7      30.46F
CHESTERFIELD*  NOT AVBL
HANOVER        MOSUNNY   49  34  56 VRB5      30.48F
TAPPAHANNOCK*  MOSUNNY   49  33  54 E5        30.47F
CHARLOTTSVILLE PTSUNNY   49  36  61 CALM      30.44F
ORANGE*        PTSUNNY   46  36  66 CALM      30.46F
LOUISA*        MOSUNNY   50  36  57 NW3       30.43F
FARMVILLE*     PTSUNNY   52  36  54 NE3       30.43F
SOUTH HILL*    PTSUNNY   52  37  58 N6        30.49F
ROANOKE RAPIDS PTSUNNY   54  41  62 N7        30.43F
RALEIGH        CLOUDY    52  37  56 NE9       30.43S
$$

VAZ088>098-181700-
SOUTHEAST VIRGINIA

CITY           SKY/WX    TMP DP  RH WIND       PRES   REMARKS
NORFOLK        CLOUDY    49  39  68 NE12      30.44F
VIRGINIA BEACH PTSUNNY   50  39  66 NE12      30.43F
NORFOLK NAVAL  CLOUDY    51  39  63 NE12      30.46F
WEST POINT*    PTSUNNY   51  35  53 NE5       30.48S
NEWPORT NEWS   PTSUNNY   51  39  63 NE10      30.46S
LANGLEY AFB    CLOUDY    49  39  70 NE10G18   30.46F
FORT EUSTIS    PTSUNNY   51  40  68 E9        30.43F
WILLIAMSBURG*    N/A     54  41  62 E6        30.45F
FRANKLIN*      PTSUNNY   55  41  58 NE9       30.43F
WAKEFIELD      PTSUNNY   52  37  56 VRB6      30.44F
$$

VAZ020-022-025-037-045-181700-
WESTERN AND SOUTHWEST VIRGINIA

CITY           SKY/WX    TMP DP  RH WIND       PRES   REMARKS
STAUNTON*      PTSUNNY   49  35  60 S6        30.42F
HOT SPRINGS VA CLOUDY    46  34  61 CALM      30.40S
LYNCHBURG      PTSUNNY   52  36  54 CALM      30.44F
DANVILLE       CLOUDY    50  36  58 MISG      30.46S
MARTINSVILLE   CLOUDY    50  38  65 SE5       30.46S
ROANOKE        CLOUDY    46  36  68 SE3       30.44F
BLACKSBURG     CLOUDY    48  41  76 CALM      30.41F
DUBLIN*        CLOUDY    47  39  75 CALM      30.40F
MARION*        CLOUDY    46  33  59 NE6       30.41F
HILLSVILLE*    CLOUDY    46  36  66 SW6       30.42R
RICHLANDS*     CLOUDY    59  29  31 CALM      30.36S
WISE*          CLOUDY    59  30  33 S3        30.36F
ABINGDON*      CLOUDY    53  32  43 E5        30.37S
$$

MDZ021>025-VAZ099-100-181700-
SOUTHERN MARYLAND AND THE DELMARVA PENINSULA

CITY           SKY/WX    TMP DP  RH WIND       PRES   REMARKS
PATUXENT RIVER CLOUDY    45  34  65 E3        30.47F
BAY BRIDGE APT PTSUNNY   45  32  61 CALM      30.49F
LEONARDTOWN    CLOUDY    46  32  57 N5        30.48F
DOVER          CLOUDY    44  35  69 VRB3      30.45S
GEORGETOWN     PTSUNNY   47  34  60 NE12      30.48S
EASTON         CLOUDY    48  37  66 NE7       30.51F
CAMBRIDGE      PTSUNNY   52  36  54 NW6       30.46F
SALISBURY      MOSUNNY   51  34  52 N6        30.46S
OCEAN CITY     CLOUDY    48  37  65 N9G16     30.47S
WALLOPS ISLAND SUNNY     50  39  66 E13       30.46F
ACCOMACK*      MOSUNNY   50  36  57 CALM      30.45F
$$

NCZ012>017-030>032-181700-
EASTERN NORTH CAROLINA

CITY           SKY/WX    TMP DP  RH WIND       PRES   REMARKS
ELIZABETH CITY MOSUNNY   53  41  63 N16       30.42S
AHOSKIE*       PTSUNNY   52  39  61 N6        30.43S
EDENTON*       MOSUNNY   55  42  62 NE8       30.41S
CURRITUCK*     PTSUNNY   52  40  63 NE15      30.43F
KILL DEVIL HLS MOSUNNY   51  42  72 N13G21    30.40S
MANTEO         MOSUNNY   52  43  72 NE18      30.41F
CAPE HATTERAS  CLOUDY    52  46  80 N10G28    30.38S
GOLDSBORO      PTSUNNY   54  42  62 VRB7      30.38F
WASHINGTON     PTSUNNY   55  46  69 N9        30.39F
GREENVILLE     PTSUNNY   55  43  62 N6          N/A
NEW BERN       CLOUDY    57  45  64 N10       30.38F
WILMINGTON     CLOUDY    61  44  53 N9        30.34F
$$

VAZ048-181700-
ELSEWHERE

CITY           SKY/WX    TMP DP  RH WIND       PRES   REMARKS
HARRISBURG PA  CLOUDY    47  30  51 SE6       30.46F
BALTIMORE      CLOUDY    44  31  60 CALM      30.48S
ANNAPOLIS      CLOUDY    43  33  68 SE5       30.49S
ANDREWS AFB    CLOUDY    46  32  59 E5        30.47F
WILMINGTON DE  CLOUDY    46  31  55 E7        30.49F
PHILADELPHIA   CLOUDY    46  30  53 NE6       30.49F
WILDWOOD NJ*   PTSUNNY   45  34  65 E10G16    30.49S
ATLANTIC CITY  CLOUDY    46  34  62 NE13      30.47F
HENDERSON NC   CLOUDY    50  35  57 N6        30.43F
GREENSBORO     CLOUDY    50  37  61 NE6       30.42F
ROCKY MOUNT    PTSUNNY   54  39  57 N10       30.42F
FAYETTEVILLE   CLOUDY    55  38  52 N12       30.39R
CHARLOTTE      CLOUDY    54  42  64 N9        30.39F
$$

VAZ100-181700-
MARINE

STATION/POSITION TIME  TEMP    WIND        PRES    WAVE   SWELL
                       AIR SEA DIR/SP/G            HT/PER HT/PER
                 (UTC) (F)     (DEG/KT/KT) (MB)    (FT/S) (FT/S)
44066 TX TWR #4  1600   40 44   30/ 14/ 16 1031.0F   8/ 9   7/ 9
CAPE MAY NJ      1600   44 51   60/  5/  8 1031.8R
LEWES DE         1600   43 47   50/  9/ 11 1031.8R
15NM E FENWICK I 1600   43 45              1031.4R   7/10
OCEAN-CITY-INLET 1600   44 46   20/  8/ 12 1031.7R
WACHAPREAGUE VA  1600   46 50   60/ 11/ 14 1031.1F
THOMAS POINT MD  1600   42 52  320/  3/  4 1033.0S
GOOSES REEF MD   1600   43      30/  2/  4 1034.7F
COVE POINT MD    1600   43     280/  1/  2 1032.2F
SOLOMONS ISLAND  1600      51                N/A
BISHOPS HEAD MD  1600   46 51  330/  2/  5 1031.6F
PINEY POINT MD   1600          150/  2/  3   N/A
POTOMAC MD       1600   44      40/  6/  8 1031.3F
CAMBRIDGE MD     1600   45 55  360/  3/  6 1031.7R
LEWISETTA VA     1600   45 53   50/  5/  8 1031.6F
RAPPAHANNOCK LGT 1600          350/  7/  8 1031.6F
STINGRAY PT      1600   44      30/  8/ 10 1031.4F
YORK RVR RNG VA  1600   44      80/  9/ 11 1030.8S
YORKTOWN VA      1600   45 54   80/ 11/ 12 1031.3S
JAMESTOWN VA     1600   48     110/  6/  8   N/A
DOMINION TERM VA 1600   45      90/ 10/ 14 1031.2S
KIPTOPEKE VA     1600      52   60/  9/ 14   N/A
CHES BAY BRIDGE  1600   45 51   20/ 11/ 13 1031.0S
CAPE HENRY VA    1600   45      30/ 15/ 17   N/A
CHESAPEAKE LGHT  1500   44      10/ 16/ 17 1031.5R
WILLOUBY STN VA  1600   44      60/ 10/ 12 1030.2F
S CRANEY ISL VA  1600           20/ 10/ 13 1031.1S
CAPE HENRY BUOY  1600      46                N/A     5/10   2/11
1ST LANDING BUOY 1600      45                N/A     5/11   5/11
64NM E OF VA BCH 1600   49 49  360/ 16/ 19 1028.8R   8/10   7/10
DUCK PIER NC     1600   46 51   10/ 16/ 20 1029.1R
44100 DUCK FRF   1600      48                N/A     7/11   3/11
44056 DUCK FRF   1600      49                N/A     7/10   3/11
OREGON INLET NC  1600   50 50  360/ 15/ 20 1029.5F
HATTERAS NC      1600   50 55   20/ 20/ 25 1028.6F
CAPE LOOKOUT NC  1500   55      20/ 17/ 20 1027.6S
FRYING PAN SHLS  1600   58 64   40/ 21/ 27 1025.2F   7/ 6   3/10
$$



USA.gov is the U.S. government's official web portal to all federal, state and local government web resources and services.